DW1256 Weather Reports


Display with metric or nautical units.
time (UTC)temp
F
wind
direction
speed
MPH
gust
MPH
rain 1hr
in
rain 24hr
in
rain mn
in
humidity
%
barometer
mb
20260503072548 41 202 1.0 4.0 0.00 0.00 0.00 53 1015.4
20260503072042 41 311 1.0 4.0 0.00 0.00 0.00 53 1015.4
20260503071536 41 221 1.0 3.0 0.00 0.00 0.00 53 1015.4
20260503071030 41 204 0.0 3.0 0.00 0.00 0.00 53 1015.4
20260503054346 42 319 0.0 0.0 0.00 0.00 0.00 51 1016.1
20260503053840 42 319 0.0 0.0 0.00 0.00 0.00 50 1016.2
20260503052827 42 319 0.0 0.0 0.00 0.00 0.00 50 1016.3
20260503052320 42 319 0.0 0.0 0.00 0.00 0.00 50 1016.4
20260503051815 42 319 0.0 2.0 0.00 0.00 0.00 50 1016.3
20260503051309 42 319 0.0 2.0 0.00 0.00 0.00 49 1016.4
20260503050802 42 319 0.0 2.0 0.00 0.00 0.00 49 1016.4
20260503050257 42 319 0.0 1.0 0.00 0.00 0.00 49 1016.4
20260503045750 42 319 0.0 2.0 0.00 0.00 0.00 49 1016.4
20260503044232 42 319 0.0 1.0 0.00 0.00 0.00 49 1016.3
20260503043726 42 319 0.0 1.0 0.00 0.00 0.00 49 1016.3
20260503042713 42 319 0.0 3.0 0.00 0.00 0.00 49 1016.3
20260503041156 42 323 0.0 0.0 0.00 0.00 0.00 48 1016.3
20260503040143 42 323 0.0 0.0 0.00 0.00 0.00 49 1016.3
20260503035132 43 323 0.0 0.0 0.00 0.00 0.00 49 1016.4
20260503034119 43 323 0.0 0.0 0.00 0.00 0.00 50 1016.4
20260503033613 43 323 0.0 0.0 0.00 0.00 0.00 50 1016.4
20260503033107 43 323 0.0 0.0 0.00 0.00 0.00 50 1016.4
20260503032601 43 323 0.0 0.0 0.00 0.00 0.00 50 1016.4
20260503032055 43 323 0.0 0.0 0.00 0.00 0.00 50 1016.5
20260503031044 44 323 0.0 0.0 0.00 0.00 0.00 50 1016.6
20260503030538 44 323 0.0 0.0 0.00 0.00 0.00 50 1016.6
20260503025525 44 323 0.0 0.0 0.00 0.00 0.00 48 1016.6
20260503025019 45 323 0.0 0.0 0.00 0.00 0.00 48 1016.6
20260503024514 45 323 0.0 0.0 0.00 0.00 0.00 48 1016.6
20260503023501 46 323 0.0 0.0 0.00 0.00 0.00 47 1016.5
20260503022955 46 323 0.0 0.0 0.00 0.00 0.00 46 1016.5
20260503022449 46 323 0.0 0.0 0.00 0.00 0.00 45 1016.5
20260503021943 46 323 0.0 0.0 0.00 0.00 0.00 44 1016.4
20260503015919 48 323 0.0 0.0 0.00 0.00 0.00 41 1016.3
20260503015413 48 323 0.0 0.0 0.00 0.00 0.00 39 1016.3
20260503014907 48 323 0.0 0.0 0.00 0.00 0.00 37 1016.2
20260503014401 49 323 0.0 0.0 0.00 0.00 0.00 37 1016.2
20260503012848 50 323 0.0 0.0 0.00 0.00 0.00 35 1016.2
20260503012334 50 323 0.0 0.0 0.00 0.00 0.00 35 1016.1
20260503011828 50 323 0.0 0.0 0.00 0.00 0.00 35 1016.2
20260503011321 51 323 0.0 0.0 0.00 0.00 0.00 34 1016.1
20260503010309 51 323 0.0 0.0 0.00 0.00 0.00 34 1015.9
20260503005257 52 323 0.0 0.0 0.00 0.00 0.00 33 1016.1
20260503004752 53 323 0.0 0.0 0.00 0.00 0.00 34 1015.9
20260503004246 53 323 0.0 0.0 0.00 0.00 0.00 36 1016.1
20260503003739 53 323 0.0 0.0 0.00 0.00 0.00 36 1015.9
20260503003233 54 323 0.0 0.0 0.00 0.00 0.00 35 1015.9
20260503002221 54 323 0.0 1.0 0.00 0.00 0.00 28 1015.9
20260503001210 54 323 1.0 3.0 0.00 0.00 0.00 28 1016.1
20260503000704 54 323 1.0 3.0 0.00 0.00 0.00 27 1016.1
20260503000158 54 323 1.0 3.0 0.00 0.00 0.00 28 1015.9
20260502235652 54 323 2.0 4.0 0.00 0.00 0.00 27 1015.9
20260502235145 54 323 2.0 7.0 0.00 0.00 0.00 27 1016.1
20260502234639 54 309 2.0 7.0 0.00 0.00 0.00 27 1016.1
20260502234133 55 301 2.0 6.0 0.00 0.00 0.00 27 1016.1
20260502233627 55 306 4.0 9.0 0.00 0.00 0.00 26 1016.1
20260502233121 55 290 4.0 11.0 0.00 0.00 0.00 26 1016.1
20260502232616 56 284 2.0 7.0 0.00 0.00 0.00 25 1016.1
20260502232110 56 308 2.0 9.0 0.00 0.00 0.00 26 1016.1
20260502231604 56 341 3.0 9.0 0.00 0.00 0.00 26 1016.2
20260502231057 55 323 3.0 6.0 0.00 0.00 0.00 26 1016.2
20260502230045 55 350 3.0 9.0 0.00 0.00 0.00 25 1016.2
20260502225540 55 348 4.0 11.0 0.00 0.00 0.00 25 1016.2
20260502225033 55 355 4.0 11.0 0.00 0.00 0.00 24 1016.2
20260502224527 55 355 3.0 8.0 0.00 0.00 0.00 26 1016.2
20260502223515 55 342 2.0 6.0 0.00 0.00 0.00 26 1016.2
20260502223009 55 0 3.0 6.0 0.00 0.00 0.00 25 1016.2
20260502222504 55 331 4.0 12.0 0.00 0.00 0.00 25 1016.2
20260502221957 55 28 4.0 12.0 0.00 0.00 0.00 23 1016.2
20260502221451 56 0 3.0 9.0 0.00 0.00 0.00 25 1016.3
20260502220439 58 0 3.0 8.0 0.00 0.00 0.00 23 1016.2
20260502215933 56 0 3.0 11.0 0.00 0.00 0.00 23 1016.2
20260502215428 58 0 2.0 11.0 0.00 0.00 0.00 21 1016.2
20260502214922 55 166 3.0 9.0 0.00 0.00 0.00 22 1016.2
20260502214415 55 69 4.0 9.0 0.00 0.00 0.00 24 1016.3
20260502213909 55 34 4.0 9.0 0.00 0.00 0.00 25 1016.3
20260502213403 55 355 4.0 10.0 0.00 0.00 0.00 23 1016.3
20260502212858 57 0 4.0 10.0 0.00 0.00 0.00 24 1016.3
20260502210833 55 346 3.0 9.0 0.00 0.00 0.00 26 1016.3
20260502205821 56 13 4.0 12.0 0.00 0.00 0.00 26 1016.5
20260502205315 55 319 3.0 7.0 0.00 0.00 0.00 28 1016.5
20260502204810 54 287 4.0 8.0 0.00 0.00 0.00 23 1016.6
20260502204304 54 322 5.0 14.0 0.00 0.00 0.00 27 1016.6
20260502203759 54 261 5.0 14.0 0.00 0.00 0.00 24 1016.6
20260502203256 55 26 4.0 14.0 0.00 0.00 0.00 25 1016.6
20260502202756 54 30 4.0 13.0 0.00 0.00 0.00 28 1016.7
20260502202256 55 346 3.0 9.0 0.00 0.00 0.00 26 1016.7
20260502201756 54 325 3.0 9.0 0.00 0.00 0.00 29 1016.8
20260502201255 53 38 4.0 12.0 0.00 0.00 0.00 25 1016.9
20260502200752 54 335 4.0 12.0 0.00 0.00 0.00 26 1017.0
20260502200251 54 5 3.0 10.0 0.00 0.00 0.00 29 1017.0
20260502195751 54 34 4.0 11.0 0.00 0.00 0.00 29 1017.2
20260502195252 54 355 3.0 11.0 0.00 0.00 0.00 25 1017.1
20260502194753 54 21 4.0 10.0 0.00 0.00 0.00 27 1017.2
20260502194253 54 285 3.0 10.0 0.00 0.00 0.00 24 1017.2
20260502193752 56 38 3.0 8.0 0.00 0.00 0.00 28 1017.3
20260502192752 53 355 3.0 8.0 0.00 0.00 0.00 32 1017.4
20260502192252 52 302 4.0 11.0 0.00 0.00 0.00 27 1017.4
20260502191751 52 317 6.0 17.0 0.00 0.00 0.00 26 1017.5
20260502190747 53 296 5.0 12.0 0.00 0.00 0.00 27 1017.6
20260502190241 52 9 5.0 12.0 0.00 0.00 0.00 28 1017.5
20260502185734 53 284 4.0 12.0 0.00 0.00 0.00 26 1017.6
20260502185229 53 5 4.0 12.0 0.00 0.00 0.00 26 1017.6
20260502184723 52 310 4.0 10.0 0.00 0.00 0.00 30 1017.7
20260502184216 52 20 4.0 10.0 0.00 0.00 0.00 28 1017.7
20260502183711 52 334 5.0 14.0 0.00 0.00 0.00 28 1017.7
20260502183205 54 22 5.0 14.0 0.00 0.00 0.00 27 1017.7
20260502181647 53 340 5.0 12.0 0.00 0.00 0.00 24 1017.8
20260502181140 54 32 5.0 14.0 0.00 0.00 0.00 27 1017.9
20260502180635 53 343 6.0 15.0 0.00 0.00 0.00 27 1017.9
20260502180129 53 347 4.0 15.0 0.00 0.00 0.00 27 1018.0
20260502163952 51 350 4.0 9.0 0.00 0.00 0.00 30 1018.6
20260502163447 51 273 4.0 9.0 0.00 0.00 0.00 29 1018.5
20260502162940 52 331 3.0 9.0 0.00 0.00 0.00 28 1018.7
20260502161928 51 304 4.0 12.0 0.00 0.00 0.00 32 1018.7
20260502161423 50 0 5.0 12.0 0.00 0.00 0.00 29 1018.7
20260502160411 50 317 6.0 11.0 0.00 0.00 0.00 29 1018.7
20260502152323 49 320 3.0 7.0 0.00 0.00 0.00 31 1018.7
20260502151818 48 22 3.0 8.0 0.00 0.00 0.00 31 1018.8
20260502151318 48 0 3.0 8.0 0.00 0.00 0.00 32 1018.7
20260502150819 49 342 3.0 9.0 0.00 0.00 0.00 33 1018.8
20260502130205 41 64 3.0 5.0 0.00 0.00 0.00 49 1018.3
20260502123634 39 0 2.0 5.0 0.00 0.00 0.00 58 1018.2
20260502123129 39 42 2.0 5.0 0.00 0.00 0.00 59 1018.2
20260502122622 39 88 2.0 4.0 0.00 0.00 0.00 61 1018.0
20260502121610 38 81 2.0 4.0 0.00 0.00 0.00 62 1018.0
20260502121105 38 81 1.0 3.0 0.00 0.00 0.00 62 1018.0
20260502120558 38 81 0.0 2.0 0.00 0.00 0.00 63 1017.9
20260502115547 37 81 0.0 1.0 0.00 0.00 0.00 63 1017.9
20260502114535 36 81 0.0 2.0 0.00 0.00 0.00 63 1017.8
20260502111515 36 81 0.0 0.0 0.00 0.00 0.00 61 1017.8
20260502111013 36 81 0.0 0.0 0.00 0.00 0.00 61 1017.8
20260502110514 36 81 0.0 0.0 0.00 0.00 0.00 61 1017.8
20260502105517 36 81 0.0 0.0 0.00 0.00 0.00 61 1017.7
20260502104513 37 81 0.0 0.0 0.00 0.00 0.00 61 1017.7
20260502103013 38 81 0.0 0.0 0.00 0.00 0.00 60 1017.7
20260502102010 38 81 0.0 0.0 0.00 0.00 0.00 60 1017.7
20260502101511 38 81 0.0 0.0 0.00 0.00 0.00 60 1017.7
20260502101009 38 81 0.0 0.0 0.00 0.00 0.00 60 1017.6
20260502100510 38 81 0.0 0.0 0.00 0.00 0.00 60 1017.6
20260502091505 40 81 0.0 0.0 0.00 0.00 0.00 59 1017.5
20260502090504 40 81 0.0 0.0 0.00 0.00 0.00 59 1017.4